Coral Harbour, Nunavut

11:05 PM EST on August 20, 2017 (GMT -0500)
Coral Harbour

Weather History for CYZS - January, 2013

Change the Weather History Date:

Tuesday, January 1, 2013

  Actual Average Record
Temperature  
Mean Temperature -10 °F -  
Max Temperature -3 °F -14 °F 6 °F (2002)
Min Temperature -18 °F -29 °F -50 °F (1998)
Degree Days  
Heating Degree Days 76    
Moisture  
Dew Point -17 °F    
Average Humidity 62    
Maximum Humidity 70    
Minimum Humidity 46    
Precipitation  
Precipitation 0.00 in 0.01 in - ()
Sea Level Pressure  
Sea Level Pressure 29.85 in    
Wind  
Wind Speed 9 mph ()    
Max Wind Speed 21 mph    
Max Gust Speed -    
Visibility 14.4 miles    
Events Snow    
Averages and records for this station are not official NWS values.
T = Trace of Precipitation, MM = Missing Value Source: Averaged Metar Reports

Daily Weather History Graph

Daily Weather History Graph

Search for Another Location

Airport or City:

Trip Planner

Search our weather history database for the weather conditions in past years. The results will help you decide how hot, cold, wet, or windy it might be!

Date:

Astronomy

Jan. 01, 2013 Rise Set
Actual Time 10:25 AM EST 2:49 PM EST
Civil Twilight 9:09 AM EST 4:05 PM EST
Nautical Twilight 8:00 AM EST 5:13 PM EST
Astronomical Twilight 7:01 AM EST 6:13 PM EST
Moon 9:23 PM EST (1/1) 10:42 AM EST (1/1)
Length of Visible Light 6h 56m
Length of Day
4h 23m
Waning Gibbous, 83% of the Moon is Illuminated
Jan 1
Waning Gibbous
Jan 4
Last Quarter
Jan 11
New
Jan 18
First Quarter
Jan 26
Full

Hourly Weather History & Observations

Time (EST) Temp. Windchill Dew Point Humidity Pressure Visibility Wind Dir Wind Speed Gust Speed Precip Events Conditions
12:00 AM -4.0 °F -12.4 °F -13.0 °F 65% 29.83 in 15.0 mi West 3.5 mph - N/A   Partly Cloudy
1:00 AM -5 °F - -14 °F 51% 29.82 in 15 mi Calm Calm - - Snow Snow
1:00 AM -4.0 °F - -13.0 °F 65% 29.82 in 15.0 mi Calm Calm - N/A   Partly Cloudy
2:00 AM -4.0 °F -24.5 °F -13.0 °F 65% 29.82 in 15.0 mi NNW 15.0 mph - N/A Snow Low Drifting Snow
3:00 AM -4.0 °F -24.5 °F -13.0 °F 65% 29.82 in 15.0 mi North 15.0 mph - N/A Snow Low Drifting Snow
4:00 AM -4.0 °F -24.5 °F -13.0 °F 65% 29.83 in 15.0 mi NNW 15.0 mph - N/A Snow Low Drifting Snow
5:00 AM -4.0 °F -14.6 °F -13.0 °F 65% 29.84 in 15.0 mi NNW 4.6 mph - N/A   Partly Cloudy
6:00 AM -4.0 °F -21.2 °F -13.0 °F 65% 29.84 in 15.0 mi North 10.4 mph - N/A   Scattered Clouds
7:00 AM -3 °F - -13 °F 47% 29.83 in 15 mi North 10.4 mph - - Snow Snow
7:00 AM -4.0 °F -21.2 °F -13.0 °F 65% 29.83 in 15.0 mi North 10.4 mph - N/A   Mostly Cloudy
8:00 AM -4.0 °F -16.3 °F -13.0 °F 65% 29.83 in 6.0 mi NNW 5.8 mph - N/A   Ice Crystals
9:00 AM -4.0 °F -23.7 °F -13.0 °F 65% 29.83 in 8.0 mi North 13.8 mph - N/A   Mostly Cloudy
10:00 AM -5.8 °F -26.0 °F -14.8 °F 65% 29.83 in 12.0 mi North 13.8 mph - N/A   Mostly Cloudy
11:00 AM -7.6 °F -28.3 °F -16.6 °F 65% 29.83 in 15.0 mi North 13.8 mph - N/A   Mostly Cloudy
12:00 PM -5.8 °F -29.9 °F -16.6 °F 60% 29.83 in 15.0 mi North 20.7 mph - N/A Snow Low Drifting Snow
1:00 PM -7 °F - -17 °F 46% 29.85 in 15 mi NNW 17.3 mph - - Snow Snow
1:00 PM -7.6 °F -30.5 °F -16.6 °F 65% 29.85 in 15.0 mi NNW 17.3 mph - N/A Snow Low Drifting Snow
2:00 PM -7.6 °F -26.6 °F -16.6 °F 65% 29.86 in 15.0 mi NNW 11.5 mph - N/A   Mostly Cloudy
3:00 PM -9.4 °F -30.6 °F -18.4 °F 65% 29.86 in 15.0 mi NNW 13.8 mph - N/A   Mostly Cloudy
4:00 PM -9.4 °F -26.8 °F -18.4 °F 65% 29.87 in 15.0 mi NNW 9.2 mph - N/A   Scattered Clouds
4:24 PM - - - N/A% - 15.0 mi NNW 11.5 mph - N/A   Unknown
5:00 PM -9.4 °F -28.9 °F -18.4 °F 65% 29.87 in 15.0 mi NNW 11.5 mph - N/A Snow Light Snow
5:32 PM - - - N/A% - 15.0 mi NNW 11.5 mph - N/A   Partly Cloudy
6:00 PM -7.6 °F -24.6 °F -18.4 °F 59% 29.88 in 15.0 mi NNW 9.2 mph - N/A   Partly Cloudy
7:00 PM -14 °F - -23 °F 48% 29.89 in 15 mi NNW 11.5 mph - - Snow Snow
7:00 PM -14.8 °F -35.6 °F -22.0 °F 70% 29.89 in 15.0 mi NNW 11.5 mph - N/A   Partly Cloudy
8:00 PM -14.8 °F -35.6 °F -23.8 °F 64% 29.89 in 15.0 mi NNW 11.5 mph - N/A   Partly Cloudy
9:00 PM -14.8 °F -35.6 °F -23.8 °F 64% 29.89 in 15.0 mi NNW 11.5 mph - N/A   Partly Cloudy
10:00 PM -18.4 °F -40.2 °F -27.4 °F 63% 29.89 in 15.0 mi NNW 11.5 mph - N/A   Partly Cloudy
11:00 PM -18.4 °F -40.2 °F -29.2 °F 58% 29.89 in 15.0 mi NW 11.5 mph - N/A   Partly Cloudy